{"data":{"norad_id":48972,"intl_designator":"2021-060F","name":"ONEWEB-0254","alt_names":[],"object_type":"PAYLOAD","status":"ACTIVE","operator":null,"country":"UK","launch_date":"2021-07-01","launch_site_code":"VOSTO","launch_vehicle":null,"mission":null,"orbit_class":"UNKNOWN","rcs_meters":null,"size_class":null,"mass_kg":null,"dimensions":null,"purposes":["comms"],"wikipedia_slug":null,"has_3d_model":false,"image_url":null,"decayed_at":null,"tle_current":{"epoch":"2026-05-25T04:58:12.906912Z","epoch_age_seconds":67235,"freshness":"FRESH","line1":"1 48972U 21060F   26145.20709383  .00000037  00000+0  62182-4 0  9991","line2":"2 48972  87.9108 233.3350 0001682 100.7273 259.4047 13.16593425236563","mean_motion":13.16593425,"eccentricity":0.0001682,"inclination_deg":87.9108,"raan_deg":233.335,"arg_perigee_deg":100.7273,"mean_anomaly_deg":259.4047,"bstar":6.2182e-5,"rev_number":23656,"period_min":109.37317266338,"perigee_km":1196.4855928845,"apogee_km":1199.0341245878,"semimajor_km":7575.8968587362,"source":"CELESTRAK","updated_at":"2026-05-25T13:38:22.450452Z"}}}